Regional Weather Roundup
Issued by NWS New Orleans/Baton Rouge, LA

Home | Current Version | Previous Version | Graphics & Text | Print | Product List | Glossary On
Versions: 1 2 3 4 5 6 7 8 9 10 11 12 13 14 15 16 17 18 19 20 21 22 23 24 25 26 27 28 29 30 31 32 33 34 35 36 37 38 39 40 41 42 43 44 45 46 47 48 49 50
386
ASUS44 KLIX 251701
RWRLIX
NEW ORLEANS REGIONAL WEATHER ROUNDUP
NATIONAL WEATHER SERVICE NEW ORLEANS LA
1100 AM CST SUN JAN 25 2015

NOTE: "FAIR" INDICATES FEW OR NO CLOUDS BELOW 12,000 FEET WITH NO
      SIGNIFICANT WEATHER AND/OR OBSTRUCTIONS TO VISIBILITY.
      SKY/WX - SKY CONDITION AND SIGNIFICANT WEATHER.
      TMP - AIR TEMPERATURE.     DP    - DEWPOINT TEMPERATURE.
      RH  - RELATIVE HUMIDITY.   PRES  - PRESSURE.
      HI  - HEAT INDEX.          WCI   - WIND CHILL INDEX.

*  THESE STATIONS ARE NOT NWS OR FAA STATIONS AND ARE NOT UNDER
   NWS QUALITY CONTROL.

LAZ038-040-048-061>063-065>067-069-251800-
SOUTHEAST LOUISIANA

CITY           SKY/WX    TMP DP  RH WIND       PRES   REMARKS
N.O. AUDUBON   NOT AVBL
N.O. INTL ARPT SUNNY     62  42  47 W15G22    30.02F
N.O. LAKEFRONT SUNNY     60  43  53 W15       30.01F
N.O. DOWNTOWN*   N/A     59  41  51 SW10G18   30.02F
SLIDELL        SUNNY     58  40  51 SW8       30.01F
BATON ROUGE    SUNNY     61  39  44 SW14      29.99F
BOOTHVILLE     SUNNY     60  50  69 SW12      30.04F
BELLE CHASSE   MOSUNNY   60  43  53 W12G22    30.01F
BOGALUSA*        N/A     59  42  52 SW8G18    30.00F
GALLIANO*      NOT AVBL
NEW ROADS*     NOT AVBL
GONZALES*      NOT AVBL
HAMMOND*       NOT AVBL
HOUMA*         SUNNY     63  45  51 SW17      30.03F
PORT FOURCHON* SUNNY     59  48  67 W13       30.07F

$$

MSZ070-080>082-251800-
SOUTHERN MISSISSIPPI

CITY           SKY/WX    TMP DP  RH WIND       PRES   REMARKS
MCCOMB         SUNNY     58  37  45 W13G20    29.96F
GULFPORT       SUNNY     57  44  62 S12       30.00F
BILOXI         SUNNY     57  46  66 SW10      30.01F
PASCAGOULA     SUNNY     59  42  53 SW10G16   30.01F
STENNIS ARPT*  SUNNY     57  37  47 SW10G17   30.01F

$$

COASTAL OBSERVATIONS
LAKE AND NEARSHORE STATIONS

STATION/POSITION TIME  TEMP    WIND        PRES    WAVE
                       AIR SEA DIR/SP/G            HT/PER
                 (UTC) (F)     (DEG/KT/KT) (MB)    (FT/S)
PASCAGOULA       1622   55     230/ 11/ 14 1016.5
WAVELAND YACHT   1622   57     260/  5/ 12 1015.7
GRAND ISLE       1622   57 56  260/ 12/ 13 1018.3
SOUTHWEST PASS   1622   57 45  320/  3/  6 1018.3
NEW CANAL        1622   57 51  250/  8/ 12 1017.0
SHELL BEACH      1622   55 52  240/ 12/ 14 1017.1

OFFSHORE STATIONS

STATION/POSITION TIME  TEMP    WIND        PRES    WAVE
                       AIR SEA DIR/SP/G            HT/PER
                 (UTC) (F)     (DEG/KT/KT) (MB)    (FT/S)
64 S DAUPHIN ISL 1632   60 71  260/ 14/ 17 1017.7    3/ 7

$$




USA.gov is the U.S. government's official web portal to all federal, state and local government web resources and services.